Time,TemperatureF,DewpointF,PressureIn,WindDirection,WindDirectionDegrees,WindSpeedMPH,WindSpeedGustMPH,Humidity,HourlyPrecipIn,Conditions,Clouds,dailyrainin,SoftwareType,DateUTC
2013-03-27 00:00:00,34.2,25.0,29.59,North,0,0.0,0.0,69,0.00,,,0.04,WUHU216HW,2013-03-27 04:00:00,
2013-03-27 00:05:00,34.0,24.5,29.59,North,0,0.0,0.0,68,0.00,,,0.00,WUHU216HW,2013-03-27 04:05:00,
2013-03-27 00:11:00,34.0,24.5,29.59,North,0,0.0,0.0,68,0.00,,,0.00,WUHU216HW,2013-03-27 04:11:00,
2013-03-27 00:16:00,33.8,24.3,29.58,North,0,0.0,0.0,68,0.00,,,0.00,WUHU216HW,2013-03-27 04:16:00,
2013-03-27 00:21:00,33.8,24.3,29.59,North,0,0.0,0.0,68,0.00,,,0.00,WUHU216HW,2013-03-27 04:21:00,
2013-03-27 00:26:00,33.8,24.3,29.59,North,0,0.0,0.0,68,0.00,,,0.00,WUHU216HW,2013-03-27 04:26:00,
2013-03-27 00:31:00,33.8,24.3,29.59,North,0,0.0,0.0,68,0.00,,,0.00,WUHU216HW,2013-03-27 04:31:00,
2013-03-27 00:36:00,33.8,24.3,29.59,North,0,0.0,0.0,68,0.00,,,0.00,WUHU216HW,2013-03-27 04:36:00,
2013-03-27 00:41:00,33.8,24.3,29.59,North,0,0.0,0.0,68,0.00,,,0.00,WUHU216HW,2013-03-27 04:41:00,
2013-03-27 00:46:00,33.7,24.1,29.59,North,0,0.0,0.0,68,0.00,,,0.00,WUHU216HW,2013-03-27 04:46:00,
2013-03-27 00:51:00,33.5,23.9,29.59,North,0,0.0,0.0,68,0.00,,,0.00,WUHU216HW,2013-03-27 04:51:00,
2013-03-27 00:56:00,33.5,23.9,29.59,North,0,0.0,0.0,68,0.00,,,0.00,WUHU216HW,2013-03-27 04:56:00,
2013-03-27 01:01:00,33.5,23.9,29.59,North,0,0.0,0.0,68,0.00,,,0.00,WUHU216HW,2013-03-27 05:01:00,
2013-03-27 01:07:00,33.5,23.9,29.59,North,0,0.0,0.0,68,0.00,,,0.00,WUHU216HW,2013-03-27 05:07:00,
2013-03-27 01:12:00,33.5,23.9,29.59,North,0,0.0,0.0,68,0.00,,,0.00,WUHU216HW,2013-03-27 05:12:00,
2013-03-27 01:17:00,33.5,23.9,29.59,North,0,0.0,0.0,68,0.00,,,0.00,WUHU216HW,2013-03-27 05:17:00,
2013-03-27 01:22:00,33.5,23.9,29.59,North,0,0.0,0.0,68,0.00,,,0.00,WUHU216HW,2013-03-27 05:22:00,
2013-03-27 01:27:00,33.3,23.9,29.59,North,0,0.0,0.0,68,0.00,,,0.00,WUHU216HW,2013-03-27 05:27:00,
2013-03-27 01:32:00,33.1,23.7,29.59,North,0,0.0,0.0,68,0.00,,,0.00,WUHU216HW,2013-03-27 05:32:00,
2013-03-27 01:37:00,32.9,23.5,29.59,North,0,0.0,0.0,68,0.00,,,0.00,WUHU216HW,2013-03-27 05:37:00,
2013-03-27 01:42:00,32.9,23.1,29.59,North,0,0.0,0.0,67,0.00,,,0.00,WUHU216HW,2013-03-27 05:42:00,
2013-03-27 01:47:00,32.8,23.0,29.60,North,0,0.0,0.0,67,0.00,,,0.00,WUHU216HW,2013-03-27 05:47:00,
2013-03-27 01:52:00,32.8,23.0,29.59,North,0,0.0,0.0,67,0.00,,,0.00,WUHU216HW,2013-03-27 05:52:00,
2013-03-27 01:57:00,32.6,23.1,29.59,North,0,0.0,0.0,68,0.00,,,0.00,WUHU216HW,2013-03-27 05:57:00,
2013-03-27 02:03:00,32.4,22.7,29.59,North,0,0.0,0.0,67,0.00,,,0.00,WUHU216HW,2013-03-27 06:03:00,
2013-03-27 02:08:00,32.4,22.7,29.59,North,0,0.0,0.0,67,0.00,,,0.00,WUHU216HW,2013-03-27 06:08:00,
2013-03-27 02:13:00,32.6,22.8,29.59,North,0,0.0,0.0,67,0.00,,,0.00,WUHU216HW,2013-03-27 06:13:00,
2013-03-27 02:18:00,32.4,22.7,29.59,North,0,0.0,0.0,67,0.00,,,0.00,WUHU216HW,2013-03-27 06:18:00,
2013-03-27 02:23:00,32.2,22.2,29.59,North,0,0.0,0.0,66,0.00,,,0.00,WUHU216HW,2013-03-27 06:23:00,
2013-03-27 02:28:00,32.0,22.3,29.59,North,0,0.0,0.0,67,0.00,,,0.00,WUHU216HW,2013-03-27 06:28:00,
2013-03-27 02:33:00,32.0,22.0,29.59,North,0,0.0,0.0,66,0.00,,,0.00,WUHU216HW,2013-03-27 06:33:00,
2013-03-27 02:38:00,31.9,21.8,29.59,North,0,0.0,0.0,66,0.00,,,0.00,WUHU216HW,2013-03-27 06:38:00,
2013-03-27 02:43:00,31.7,21.6,29.59,North,0,0.0,0.0,66,0.00,,,0.00,WUHU216HW,2013-03-27 06:43:00,
2013-03-27 02:48:00,31.5,21.4,29.59,North,0,0.0,0.0,66,0.00,,,0.00,WUHU216HW,2013-03-27 06:48:00,
2013-03-27 02:53:00,31.3,20.9,29.59,North,0,0.0,0.0,65,0.00,,,0.00,WUHU216HW,2013-03-27 06:53:00,
2013-03-27 02:58:00,31.3,21.2,29.59,North,0,0.0,0.0,66,0.00,,,0.00,WUHU216HW,2013-03-27 06:58:00,
2013-03-27 03:04:00,31.1,20.7,29.59,North,0,0.0,0.0,65,0.00,,,0.00,WUHU216HW,2013-03-27 07:04:00,
2013-03-27 03:09:00,31.0,20.2,29.59,North,0,0.0,0.0,64,0.00,,,0.00,WUHU216HW,2013-03-27 07:09:00,
2013-03-27 03:14:00,31.0,20.9,29.59,North,0,0.0,0.0,66,0.00,,,0.00,WUHU216HW,2013-03-27 07:14:00,
2013-03-27 03:19:00,30.8,20.0,29.59,North,0,0.0,0.0,64,0.00,,,0.00,WUHU216HW,2013-03-27 07:19:00,
2013-03-27 03:24:00,30.6,19.8,29.59,North,0,0.0,0.0,64,0.00,,,0.00,WUHU216HW,2013-03-27 07:24:00,
2013-03-27 03:29:00,30.6,19.4,29.59,North,0,0.0,0.0,63,0.00,,,0.00,WUHU216HW,2013-03-27 07:29:00,
2013-03-27 03:34:00,30.6,19.4,29.59,North,0,0.0,0.0,63,0.00,,,0.00,WUHU216HW,2013-03-27 07:34:00,
2013-03-27 03:39:00,30.4,19.6,29.59,North,0,0.0,0.0,64,0.00,,,0.00,WUHU216HW,2013-03-27 07:39:00,
2013-03-27 03:44:00,30.2,19.1,29.59,North,0,0.0,0.0,63,0.00,,,0.00,WUHU216HW,2013-03-27 07:44:00,
2013-03-27 03:49:00,30.2,18.7,29.59,North,0,0.0,0.0,62,0.00,,,0.00,WUHU216HW,2013-03-27 07:49:00,
2013-03-27 03:54:00,30.1,18.9,29.58,North,0,0.0,0.0,63,0.00,,,0.00,WUHU216HW,2013-03-27 07:54:00,
2013-03-27 03:59:00,30.1,18.2,29.58,North,0,0.0,0.0,61,0.00,,,0.00,WUHU216HW,2013-03-27 07:59:00,
2013-03-27 04:05:00,30.1,18.5,29.59,North,0,0.0,0.0,62,0.00,,,0.00,WUHU216HW,2013-03-27 08:05:00,
2013-03-27 04:10:00,30.1,18.2,29.59,North,0,0.0,0.0,61,0.00,,,0.00,WUHU216HW,2013-03-27 08:10:00,
2013-03-27 04:15:00,30.1,18.2,29.59,North,0,0.0,0.0,61,0.00,,,0.00,WUHU216HW,2013-03-27 08:15:00,
2013-03-27 04:20:00,30.1,18.2,29.59,North,0,0.0,0.0,61,0.00,,,0.00,WUHU216HW,2013-03-27 08:20:00,
2013-03-27 04:25:00,30.1,18.2,29.59,North,0,0.0,0.0,61,0.00,,,0.00,WUHU216HW,2013-03-27 08:25:00,
2013-03-27 04:30:00,30.1,17.8,29.59,North,0,0.0,0.0,60,0.00,,,0.00,WUHU216HW,2013-03-27 08:30:00,
2013-03-27 04:35:00,30.1,17.5,29.60,North,0,0.0,0.0,59,0.00,,,0.00,WUHU216HW,2013-03-27 08:35:00,
2013-03-27 04:40:00,30.2,18.0,29.60,North,0,0.0,0.0,60,0.00,,,0.00,WUHU216HW,2013-03-27 08:40:00,
2013-03-27 04:45:00,29.9,17.6,29.60,North,0,0.0,0.0,60,0.00,,,0.00,WUHU216HW,2013-03-27 08:45:00,
2013-03-27 04:50:00,29.9,17.3,29.60,North,0,0.0,0.0,59,0.00,,,0.00,WUHU216HW,2013-03-27 08:50:00,
2013-03-27 04:55:00,29.9,16.8,29.59,North,0,0.0,0.0,58,0.00,,,0.00,WUHU216HW,2013-03-27 08:55:00,
2013-03-27 05:00:00,29.9,16.8,29.60,North,0,0.0,0.0,58,0.00,,,0.00,WUHU216HW,2013-03-27 09:00:00,
2013-03-27 05:05:00,29.9,16.5,29.60,North,0,0.0,0.0,57,0.00,,,0.00,WUHU216HW,2013-03-27 09:05:00,
2013-03-27 05:10:00,30.1,17.0,29.60,North,0,0.0,0.0,58,0.00,,,0.00,WUHU216HW,2013-03-27 09:10:00,
2013-03-27 05:15:00,30.1,17.0,29.60,North,0,0.0,0.0,58,0.00,,,0.00,WUHU216HW,2013-03-27 09:15:00,
2013-03-27 05:20:00,29.9,16.8,29.60,North,0,0.0,0.0,58,0.00,,,0.00,WUHU216HW,2013-03-27 09:20:00,
2013-03-27 05:25:00,29.9,16.5,29.59,North,0,0.0,0.0,57,0.00,,,0.00,WUHU216HW,2013-03-27 09:25:00,
2013-03-27 05:30:00,29.9,16.5,29.59,North,0,0.0,0.0,57,0.00,,,0.00,WUHU216HW,2013-03-27 09:30:00,
2013-03-27 05:35:00,29.9,16.8,29.59,North,0,0.0,0.0,58,0.00,,,0.00,WUHU216HW,2013-03-27 09:35:00,
2013-03-27 05:40:00,29.7,16.7,29.59,North,0,0.0,0.0,58,0.00,,,0.00,WUHU216HW,2013-03-27 09:40:00,
2013-03-27 05:46:00,29.7,15.8,29.60,North,0,0.0,0.0,56,0.00,,,0.00,WUHU216HW,2013-03-27 09:46:00,
2013-03-27 05:51:00,29.5,16.1,29.60,North,0,0.0,0.0,57,0.00,,,0.00,WUHU216HW,2013-03-27 09:51:00,
2013-03-27 05:56:00,29.5,15.7,29.60,North,0,0.0,0.0,56,0.00,,,0.00,WUHU216HW,2013-03-27 09:56:00,
2013-03-27 06:01:00,29.3,16.4,29.60,North,0,0.0,0.0,58,0.00,,,0.00,WUHU216HW,2013-03-27 10:01:00,
2013-03-27 06:06:00,29.2,15.8,29.60,North,0,0.0,0.0,57,0.00,,,0.00,WUHU216HW,2013-03-27 10:06:00,
2013-03-27 06:11:00,29.2,16.2,29.60,North,0,0.0,0.0,58,0.00,,,0.00,WUHU216HW,2013-03-27 10:11:00,
2013-03-27 06:16:00,29.2,15.8,29.61,North,0,0.0,0.0,57,0.00,,,0.00,WUHU216HW,2013-03-27 10:16:00,
2013-03-27 06:21:00,28.8,15.8,29.61,North,0,0.0,0.0,58,0.00,,,0.00,WUHU216HW,2013-03-27 10:21:00,
2013-03-27 06:26:00,28.6,15.8,29.61,North,0,0.0,0.0,58,0.00,,,0.00,WUHU216HW,2013-03-27 10:26:00,
2013-03-27 06:31:00,28.4,15.6,29.61,North,0,0.0,0.0,58,0.00,,,0.00,WUHU216HW,2013-03-27 10:31:00,
2013-03-27 06:36:00,28.4,15.1,29.61,North,0,0.0,0.0,57,0.00,,,0.00,WUHU216HW,2013-03-27 10:36:00,
2013-03-27 06:41:00,28.4,15.9,29.61,North,0,0.0,0.0,59,0.00,,,0.00,WUHU216HW,2013-03-27 10:41:00,
2013-03-27 06:47:00,28.3,15.8,29.61,North,0,0.0,0.0,59,0.00,,,0.00,WUHU216HW,2013-03-27 10:47:00,
2013-03-27 06:52:00,28.3,14.9,29.61,North,0,0.0,0.0,57,0.00,,,0.00,WUHU216HW,2013-03-27 10:52:00,
2013-03-27 06:57:00,28.3,15.8,29.61,North,0,0.0,0.0,59,0.00,,,0.00,WUHU216HW,2013-03-27 10:57:00,
2013-03-27 07:02:00,27.9,15.8,29.61,North,0,0.0,0.0,60,0.00,,,0.00,WUHU216HW,2013-03-27 11:02:00,
2013-03-27 07:07:00,27.5,15.5,29.61,North,0,0.0,0.0,60,0.00,,,0.00,WUHU216HW,2013-03-27 11:07:00,
2013-03-27 07:12:00,27.5,15.8,29.61,North,0,0.0,0.0,61,0.00,,,0.00,WUHU216HW,2013-03-27 11:12:00,
2013-03-27 07:17:00,27.2,15.8,29.61,North,0,0.0,0.0,62,0.00,,,0.00,WUHU216HW,2013-03-27 11:17:00,
2013-03-27 07:22:00,26.8,15.5,29.62,North,0,0.0,0.0,62,0.00,,,0.00,WUHU216HW,2013-03-27 11:22:00,
2013-03-27 07:27:00,26.6,15.3,29.62,North,0,0.0,0.0,62,0.00,,,0.00,WUHU216HW,2013-03-27 11:27:00,
2013-03-27 07:32:00,26.6,14.9,29.62,North,0,0.0,0.0,61,0.00,,,0.00,WUHU216HW,2013-03-27 11:32:00,
2013-03-27 07:37:00,26.5,15.1,29.62,North,0,0.0,0.0,62,0.00,,,0.00,WUHU216HW,2013-03-27 11:37:00,
2013-03-27 07:42:00,26.3,14.9,29.62,North,0,0.0,0.0,62,0.00,,,0.00,WUHU216HW,2013-03-27 11:42:00,
2013-03-27 07:47:00,26.1,14.5,29.62,North,0,0.0,0.0,61,0.00,,,0.00,WUHU216HW,2013-03-27 11:47:00,
2013-03-27 07:52:00,26.1,14.5,29.62,North,0,0.0,0.0,61,0.00,,,0.00,WUHU216HW,2013-03-27 11:52:00,
2013-03-27 07:57:00,26.3,13.9,29.62,North,0,0.0,0.0,59,0.00,,,0.00,WUHU216HW,2013-03-27 11:57:00,
2013-03-27 08:02:00,26.3,13.9,29.62,North,0,0.0,0.0,59,0.00,,,0.00,WUHU216HW,2013-03-27 12:02:00,
2013-03-27 08:08:00,26.5,14.4,29.61,North,0,0.0,0.0,60,0.00,,,0.00,WUHU216HW,2013-03-27 12:08:00,
2013-03-27 08:13:00,26.8,14.3,29.62,North,0,0.0,0.0,59,0.00,,,0.00,WUHU216HW,2013-03-27 12:13:00,
2013-03-27 08:18:00,27.0,14.1,29.62,North,0,0.0,0.0,58,0.00,,,0.00,WUHU216HW,2013-03-27 12:18:00,
2013-03-27 08:23:00,27.4,14.5,29.62,North,0,0.0,0.0,58,0.00,,,0.00,WUHU216HW,2013-03-27 12:23:00,
2013-03-27 08:28:00,27.9,12.5,29.62,North,0,0.0,0.0,52,0.00,,,0.00,WUHU216HW,2013-03-27 12:28:00,
2013-03-27 08:33:00,28.6,13.2,29.62,North,0,0.0,0.0,52,0.00,,,0.00,WUHU216HW,2013-03-27 12:33:00,
2013-03-27 08:38:00,29.2,13.7,29.63,North,0,0.0,0.0,52,0.00,,,0.00,WUHU216HW,2013-03-27 12:38:00,
2013-03-27 08:43:00,29.5,14.5,29.63,North,0,0.0,0.0,53,0.00,,,0.00,WUHU216HW,2013-03-27 12:43:00,
2013-03-27 08:48:00,30.1,16.2,29.63,North,0,0.0,0.0,56,0.00,,,0.00,WUHU216HW,2013-03-27 12:48:00,
2013-03-27 08:53:00,30.6,17.1,29.63,North,0,0.0,0.0,57,0.00,,,0.00,WUHU216HW,2013-03-27 12:53:00,
2013-03-27 08:58:00,31.0,18.3,29.63,North,0,0.0,0.0,59,0.00,,,0.00,WUHU216HW,2013-03-27 12:58:00,
2013-03-27 09:03:00,31.5,20.0,29.63,North,0,0.0,0.0,62,0.00,,,0.00,WUHU216HW,2013-03-27 13:03:00,
2013-03-27 09:08:00,32.0,20.5,29.64,North,0,0.0,0.0,62,0.00,,,0.00,WUHU216HW,2013-03-27 13:08:00,
2013-03-27 09:13:00,32.4,21.3,29.64,North,0,0.0,0.0,63,0.00,,,0.00,WUHU216HW,2013-03-27 13:13:00,
2013-03-27 09:18:00,32.8,22.2,29.64,North,0,0.0,0.0,65,0.00,,,0.00,WUHU216HW,2013-03-27 13:18:00,
2013-03-27 09:23:00,32.9,22.8,29.64,North,0,0.0,0.0,66,0.00,,,0.00,WUHU216HW,2013-03-27 13:23:00,
2013-03-27 09:29:00,33.1,23.3,29.64,North,0,0.0,0.0,67,0.00,,,0.00,WUHU216HW,2013-03-27 13:29:00,
2013-03-27 09:34:00,33.7,23.8,29.64,North,0,0.0,0.0,67,0.00,,,0.00,WUHU216HW,2013-03-27 13:34:00,
2013-03-27 09:39:00,33.8,23.9,29.65,North,0,0.0,0.0,67,0.00,,,0.00,WUHU216HW,2013-03-27 13:39:00,
2013-03-27 09:44:00,34.2,24.3,29.64,North,0,0.0,0.0,67,0.00,,,0.00,WUHU216HW,2013-03-27 13:44:00,
2013-03-27 09:49:00,34.6,24.7,29.64,North,0,0.0,0.0,67,0.00,,,0.00,WUHU216HW,2013-03-27 13:49:00,
2013-03-27 09:54:00,34.9,25.4,29.64,North,0,0.0,0.0,68,0.00,,,0.00,WUHU216HW,2013-03-27 13:54:00,
2013-03-27 09:59:00,35.3,25.4,29.64,North,0,0.0,0.0,67,0.00,,,0.00,WUHU216HW,2013-03-27 13:59:00,
2013-03-27 10:04:00,35.8,26.3,29.65,North,0,0.0,0.0,68,0.00,,,0.00,WUHU216HW,2013-03-27 14:04:00,
2013-03-27 10:09:00,36.2,26.3,29.65,North,0,0.0,0.0,67,0.00,,,0.00,WUHU216HW,2013-03-27 14:09:00,
2013-03-27 10:14:00,36.7,26.8,29.65,North,0,0.0,0.0,67,0.00,,,0.00,WUHU216HW,2013-03-27 14:14:00,
2013-03-27 10:19:00,37.3,27.3,29.66,North,0,0.0,0.0,67,0.00,,,0.00,WUHU216HW,2013-03-27 14:19:00,
2013-03-27 10:24:00,37.3,27.3,29.66,North,0,0.0,0.0,67,0.00,,,0.00,WUHU216HW,2013-03-27 14:24:00,
2013-03-27 10:29:00,37.3,26.9,29.66,North,0,0.0,0.0,66,0.00,,,0.00,WUHU216HW,2013-03-27 14:29:00,
2013-03-27 10:35:00,37.4,27.1,29.66,North,0,0.0,0.0,66,0.00,,,0.00,WUHU216HW,2013-03-27 14:35:00,
2013-03-27 10:40:00,37.4,27.1,29.66,North,0,0.0,0.0,66,0.00,,,0.00,WUHU216HW,2013-03-27 14:40:00,
2013-03-27 10:45:00,37.4,26.7,29.66,North,0,0.0,0.0,65,0.00,,,0.00,WUHU216HW,2013-03-27 14:45:00,
2013-03-27 10:50:00,38.0,26.8,29.66,North,0,0.0,0.0,64,0.00,,,0.00,WUHU216HW,2013-03-27 14:50:00,
2013-03-27 10:55:00,38.7,27.5,29.66,North,0,0.0,0.0,64,0.00,,,0.00,WUHU216HW,2013-03-27 14:55:00,
2013-03-27 11:00:00,40.0,28.4,29.66,North,0,0.0,0.0,63,0.00,,,0.00,WUHU216HW,2013-03-27 15:00:00,
2013-03-27 11:05:00,40.7,29.1,29.66,North,0,0.0,0.0,63,0.00,,,0.00,WUHU216HW,2013-03-27 15:05:00,
2013-03-27 11:10:00,40.7,27.9,29.66,North,0,0.0,0.0,60,0.00,,,0.00,WUHU216HW,2013-03-27 15:10:00,
2013-03-27 11:15:00,40.7,27.5,29.66,North,0,0.0,0.0,59,0.00,,,0.00,WUHU216HW,2013-03-27 15:15:00,
2013-03-27 11:20:00,41.0,27.8,29.66,North,0,0.0,0.0,59,0.00,,,0.00,WUHU216HW,2013-03-27 15:20:00,
2013-03-27 11:25:00,41.0,27.4,29.66,North,0,0.0,0.0,58,0.00,,,0.00,WUHU216HW,2013-03-27 15:25:00,
2013-03-27 11:30:00,41.2,27.1,29.66,North,0,0.0,0.0,57,0.00,,,0.00,WUHU216HW,2013-03-27 15:30:00,
2013-03-27 11:35:00,41.4,26.4,29.66,North,0,0.0,0.0,55,0.00,,,0.00,WUHU216HW,2013-03-27 15:35:00,
2013-03-27 11:41:00,41.8,26.7,29.66,North,0,0.0,0.0,55,0.00,,,0.00,WUHU216HW,2013-03-27 15:41:00,
2013-03-27 11:46:00,41.4,26.4,29.66,North,0,0.0,0.0,55,0.00,,,0.00,WUHU216HW,2013-03-27 15:46:00,
2013-03-27 11:51:00,41.4,26.8,29.66,North,0,0.0,0.0,56,0.00,,,0.00,WUHU216HW,2013-03-27 15:51:00,
2013-03-27 11:56:00,41.9,26.9,29.65,North,0,0.0,0.0,55,0.00,,,0.00,WUHU216HW,2013-03-27 15:56:00,
2013-03-27 12:01:00,42.5,26.6,29.65,North,0,0.0,0.0,53,0.00,,,0.00,WUHU216HW,2013-03-27 16:01:00,
2013-03-27 12:06:00,42.3,26.7,29.65,North,0,0.0,0.0,54,0.00,,,0.00,WUHU216HW,2013-03-27 16:06:00,
2013-03-27 12:12:00,42.5,26.9,29.65,North,0,0.0,0.0,54,0.00,,,0.00,WUHU216HW,2013-03-27 16:12:00,
2013-03-27 12:17:00,42.5,26.6,29.65,North,0,0.0,0.0,53,0.00,,,0.00,WUHU216HW,2013-03-27 16:17:00,
2013-03-27 12:22:00,42.1,26.2,29.65,North,0,0.0,0.0,53,0.00,,,0.00,WUHU216HW,2013-03-27 16:22:00,
2013-03-27 12:27:00,41.9,26.5,29.65,North,0,0.0,0.0,54,0.00,,,0.00,WUHU216HW,2013-03-27 16:27:00,
2013-03-27 12:32:00,43.6,27.1,29.65,North,0,0.0,0.0,52,0.00,,,0.00,WUHU216HW,2013-03-27 16:32:00,
2013-03-27 12:37:00,43.9,27.5,29.66,North,0,0.0,0.0,52,0.00,,,0.00,WUHU216HW,2013-03-27 16:37:00,
2013-03-27 12:42:00,43.9,27.0,29.66,North,0,0.0,0.0,51,0.00,,,0.00,WUHU216HW,2013-03-27 16:42:00,
2013-03-27 12:47:00,44.3,27.7,29.66,North,0,0.0,0.0,52,0.00,,,0.00,WUHU216HW,2013-03-27 16:47:00,
2013-03-27 12:52:00,44.6,28.1,29.66,North,0,0.0,0.0,52,0.00,,,0.00,WUHU216HW,2013-03-27 16:52:00,
2013-03-27 12:57:00,44.3,27.3,29.66,North,0,0.0,0.0,51,0.00,,,0.00,WUHU216HW,2013-03-27 16:57:00,
2013-03-27 13:03:00,44.3,28.2,29.67,North,0,0.0,0.0,53,0.00,,,0.00,WUHU216HW,2013-03-27 17:03:00,
2013-03-27 13:08:00,44.3,28.2,29.67,North,0,0.0,0.0,53,0.00,,,0.00,WUHU216HW,2013-03-27 17:08:00,
2013-03-27 13:13:00,44.5,27.9,29.67,North,0,0.0,0.0,52,0.00,,,0.00,WUHU216HW,2013-03-27 17:13:00,
2013-03-27 13:18:00,45.7,29.1,29.67,North,0,0.0,0.0,52,0.00,,,0.00,WUHU216HW,2013-03-27 17:18:00,
2013-03-27 13:23:00,45.0,27.0,29.67,North,0,0.0,0.0,49,0.00,,,0.00,WUHU216HW,2013-03-27 17:23:00,
2013-03-27 13:28:00,45.2,28.1,29.67,North,0,0.0,0.0,51,0.00,,,0.00,WUHU216HW,2013-03-27 17:28:00,
2013-03-27 13:33:00,45.4,28.3,29.66,North,0,0.0,0.0,51,0.00,,,0.00,WUHU216HW,2013-03-27 17:33:00,
2013-03-27 13:38:00,44.3,26.8,29.66,North,0,0.0,0.0,50,0.00,,,0.00,WUHU216HW,2013-03-27 17:38:00,
2013-03-27 13:43:00,44.1,27.5,29.66,North,0,0.0,0.0,52,0.00,,,0.00,WUHU216HW,2013-03-27 17:43:00,
2013-03-27 13:48:00,43.6,26.6,29.66,North,0,0.0,0.0,51,0.00,,,0.00,WUHU216HW,2013-03-27 17:48:00,
2013-03-27 13:53:00,42.5,26.6,29.66,North,0,0.0,0.0,53,0.00,,,0.00,WUHU216HW,2013-03-27 17:53:00,
2013-03-27 13:58:00,42.5,26.1,29.67,North,0,0.0,0.0,52,0.00,,,0.00,WUHU216HW,2013-03-27 17:58:00,
2013-03-27 14:03:00,41.8,24.9,29.66,North,0,0.0,0.0,51,0.00,,,0.00,WUHU216HW,2013-03-27 18:03:00,
2013-03-27 14:08:00,41.9,25.6,29.66,North,0,0.0,0.0,52,0.00,,,0.00,WUHU216HW,2013-03-27 18:08:00,
2013-03-27 14:13:00,42.1,25.8,29.66,North,0,0.0,0.0,52,0.00,,,0.00,WUHU216HW,2013-03-27 18:13:00,
2013-03-27 14:18:00,42.1,25.8,29.66,North,0,0.0,0.0,52,0.00,,,0.00,WUHU216HW,2013-03-27 18:18:00,
2013-03-27 14:24:00,42.1,25.3,29.66,North,0,0.0,0.0,51,0.00,,,0.00,WUHU216HW,2013-03-27 18:24:00,
2013-03-27 14:29:00,41.9,23.6,29.66,North,0,0.0,0.0,48,0.00,,,0.00,WUHU216HW,2013-03-27 18:29:00,
2013-03-27 14:34:00,41.8,23.9,29.66,North,0,0.0,0.0,49,0.00,,,0.00,WUHU216HW,2013-03-27 18:34:00,
2013-03-27 14:39:00,41.9,22.5,29.66,North,0,0.0,0.0,46,0.00,,,0.00,WUHU216HW,2013-03-27 18:39:00,
2013-03-27 14:44:00,41.6,22.7,29.66,North,0,0.0,0.0,47,0.00,,,0.00,WUHU216HW,2013-03-27 18:44:00,
2013-03-27 14:49:00,41.6,22.7,29.66,North,0,0.0,0.0,47,0.00,,,0.00,WUHU216HW,2013-03-27 18:49:00,
2013-03-27 14:54:00,41.8,22.3,29.66,North,0,0.0,0.0,46,0.00,,,0.00,WUHU216HW,2013-03-27 18:54:00,
2013-03-27 14:59:00,42.1,23.8,29.66,North,0,0.0,0.0,48,0.00,,,0.00,WUHU216HW,2013-03-27 18:59:00,
2013-03-27 15:04:00,42.3,23.4,29.66,North,0,0.0,0.0,47,0.00,,,0.00,WUHU216HW,2013-03-27 19:04:00,
2013-03-27 15:09:00,42.5,23.0,29.65,North,0,0.0,0.0,46,0.00,,,0.00,WUHU216HW,2013-03-27 19:09:00,
2013-03-27 15:14:00,42.1,23.8,29.65,North,0,0.0,0.0,48,0.00,,,0.00,WUHU216HW,2013-03-27 19:14:00,
2013-03-27 15:19:00,41.4,22.5,29.65,North,0,0.0,0.0,47,0.00,,,0.00,WUHU216HW,2013-03-27 19:19:00,
2013-03-27 15:24:00,41.2,22.9,29.65,North,0,0.0,0.0,48,0.00,,,0.00,WUHU216HW,2013-03-27 19:24:00,
2013-03-27 15:29:00,41.4,23.6,29.65,North,0,0.0,0.0,49,0.00,,,0.00,WUHU216HW,2013-03-27 19:29:00,
2013-03-27 15:35:00,41.6,23.8,29.65,North,0,0.0,0.0,49,0.00,,,0.00,WUHU216HW,2013-03-27 19:35:00,
2013-03-27 15:40:00,41.8,23.9,29.65,North,0,0.0,0.0,49,0.00,,,0.00,WUHU216HW,2013-03-27 19:40:00,
2013-03-27 15:45:00,41.6,23.8,29.65,North,0,0.0,0.0,49,0.00,,,0.00,WUHU216HW,2013-03-27 19:45:00,
2013-03-27 15:50:00,41.6,24.3,29.65,North,0,0.0,0.0,50,0.00,,,0.00,WUHU216HW,2013-03-27 19:50:00,
2013-03-27 15:55:00,41.6,24.3,29.65,North,0,0.0,0.0,50,0.00,,,0.00,WUHU216HW,2013-03-27 19:55:00,
2013-03-27 16:00:00,41.4,24.1,29.65,North,0,0.0,0.0,50,0.00,,,0.00,WUHU216HW,2013-03-27 20:00:00,
2013-03-27 16:05:00,41.6,23.8,29.65,North,0,0.0,0.0,49,0.00,,,0.00,WUHU216HW,2013-03-27 20:05:00,
2013-03-27 16:10:00,41.6,23.8,29.65,North,0,0.0,0.0,49,0.00,,,0.00,WUHU216HW,2013-03-27 20:10:00,
2013-03-27 16:15:00,41.8,23.9,29.64,North,0,0.0,0.0,49,0.00,,,0.00,WUHU216HW,2013-03-27 20:15:00,
2013-03-27 16:20:00,41.8,23.9,29.64,North,0,0.0,0.0,49,0.00,,,0.00,WUHU216HW,2013-03-27 20:20:00,
2013-03-27 16:25:00,41.6,22.2,29.64,North,0,0.0,0.0,46,0.00,,,0.00,WUHU216HW,2013-03-27 20:25:00,
2013-03-27 16:30:00,42.1,23.2,29.64,North,0,0.0,0.0,47,0.00,,,0.00,WUHU216HW,2013-03-27 20:30:00,
2013-03-27 16:35:00,42.5,22.5,29.64,North,0,0.0,0.0,45,0.00,,,0.00,WUHU216HW,2013-03-27 20:35:00,
2013-03-27 16:40:00,42.7,22.7,29.64,North,0,0.0,0.0,45,0.00,,,0.00,WUHU216HW,2013-03-27 20:40:00,
2013-03-27 16:45:00,43.2,22.7,29.64,North,0,0.0,0.0,44,0.00,,,0.00,WUHU216HW,2013-03-27 20:45:00,
2013-03-27 16:51:00,42.1,23.8,29.64,North,0,0.0,0.0,48,0.00,,,0.00,WUHU216HW,2013-03-27 20:51:00,
2013-03-27 16:56:00,41.4,23.6,29.64,North,0,0.0,0.0,49,0.00,,,0.00,WUHU216HW,2013-03-27 20:56:00,
2013-03-27 17:01:00,41.4,24.6,29.64,North,0,0.0,0.0,51,0.00,,,0.00,WUHU216HW,2013-03-27 21:01:00,
2013-03-27 17:06:00,41.8,24.5,29.64,North,0,0.0,0.0,50,0.00,,,0.00,WUHU216HW,2013-03-27 21:06:00,
2013-03-27 17:11:00,44.3,26.3,29.64,North,0,0.0,0.0,49,0.00,,,0.00,WUHU216HW,2013-03-27 21:11:00,
2013-03-27 17:16:00,46.4,23.4,29.64,North,0,0.0,0.0,40,0.00,,,0.00,WUHU216HW,2013-03-27 21:16:00,
2013-03-27 17:21:00,47.2,25.1,29.64,North,0,0.0,0.0,42,0.00,,,0.00,WUHU216HW,2013-03-27 21:21:00,
2013-03-27 17:26:00,47.0,23.2,29.64,North,0,0.0,0.0,39,0.00,,,0.00,WUHU216HW,2013-03-27 21:26:00,
2013-03-27 17:31:00,47.0,24.9,29.64,North,0,0.0,0.0,42,0.00,,,0.00,WUHU216HW,2013-03-27 21:31:00,
2013-03-27 17:36:00,47.9,25.2,29.64,North,0,0.0,0.0,41,0.00,,,0.00,WUHU216HW,2013-03-27 21:36:00,
2013-03-27 17:41:00,46.1,23.6,29.64,North,0,0.0,0.0,41,0.00,,,0.00,WUHU216HW,2013-03-27 21:41:00,
2013-03-27 17:46:00,43.6,23.0,29.64,North,0,0.0,0.0,44,0.00,,,0.00,WUHU216HW,2013-03-27 21:46:00,
2013-03-27 17:51:00,42.8,23.4,29.64,North,0,0.0,0.0,46,0.00,,,0.00,WUHU216HW,2013-03-27 21:51:00,
2013-03-27 17:56:00,42.1,23.8,29.64,North,0,0.0,0.0,48,0.00,,,0.00,WUHU216HW,2013-03-27 21:56:00,
2013-03-27 18:02:00,42.7,24.3,29.64,North,0,0.0,0.0,48,0.00,,,0.00,WUHU216HW,2013-03-27 22:02:00,
2013-03-27 18:07:00,43.2,23.2,29.64,North,0,0.0,0.0,45,0.00,,,0.00,WUHU216HW,2013-03-27 22:07:00,
2013-03-27 18:12:00,41.9,23.0,29.64,North,0,0.0,0.0,47,0.00,,,0.00,WUHU216HW,2013-03-27 22:12:00,
2013-03-27 18:17:00,41.4,23.0,29.64,North,0,0.0,0.0,48,0.00,,,0.00,WUHU216HW,2013-03-27 22:17:00,
2013-03-27 18:22:00,40.7,22.4,29.64,North,0,0.0,0.0,48,0.00,,,0.00,WUHU216HW,2013-03-27 22:22:00,
2013-03-27 18:27:00,40.7,23.0,29.64,North,0,0.0,0.0,49,0.00,,,0.00,WUHU216HW,2013-03-27 22:27:00,
2013-03-27 18:32:00,40.7,23.4,29.64,North,0,0.0,0.0,50,0.00,,,0.00,WUHU216HW,2013-03-27 22:32:00,
2013-03-27 18:37:00,40.7,23.0,29.65,North,0,0.0,0.0,49,0.00,,,0.00,WUHU216HW,2013-03-27 22:37:00,
2013-03-27 18:42:00,40.5,22.8,29.64,North,0,0.0,0.0,49,0.00,,,0.00,WUHU216HW,2013-03-27 22:42:00,
2013-03-27 18:47:00,40.5,22.8,29.65,North,0,0.0,0.0,49,0.00,,,0.00,WUHU216HW,2013-03-27 22:47:00,
2013-03-27 18:52:00,40.7,22.4,29.64,North,0,0.0,0.0,48,0.00,,,0.00,WUHU216HW,2013-03-27 22:52:00,
2013-03-27 18:57:00,40.5,21.7,29.65,North,0,0.0,0.0,47,0.00,,,0.00,WUHU216HW,2013-03-27 22:57:00,
2013-03-27 19:02:00,40.9,22.1,29.65,North,0,0.0,0.0,47,0.00,,,0.00,WUHU216HW,2013-03-27 23:02:00,
2013-03-27 19:08:00,41.0,21.7,29.65,North,0,0.0,0.0,46,0.00,,,0.00,WUHU216HW,2013-03-27 23:08:00,
2013-03-27 19:13:00,41.2,22.4,29.65,North,0,0.0,0.0,47,0.00,,,0.00,WUHU216HW,2013-03-27 23:13:00,
2013-03-27 19:18:00,41.2,22.9,29.65,North,0,0.0,0.0,48,0.00,,,0.00,WUHU216HW,2013-03-27 23:18:00,
2013-03-27 19:23:00,40.7,23.0,29.65,North,0,0.0,0.0,49,0.00,,,0.00,WUHU216HW,2013-03-27 23:23:00,
2013-03-27 19:28:00,40.5,22.8,29.65,North,0,0.0,0.0,49,0.00,,,0.00,WUHU216HW,2013-03-27 23:28:00,
2013-03-27 19:33:00,40.3,23.1,29.65,North,0,0.0,0.0,50,0.00,,,0.00,WUHU216HW,2013-03-27 23:33:00,
2013-03-27 19:38:00,40.0,23.2,29.65,North,0,0.0,0.0,51,0.00,,,0.00,WUHU216HW,2013-03-27 23:38:00,
2013-03-27 19:43:00,39.6,22.5,29.65,North,0,0.0,0.0,50,0.00,,,0.00,WUHU216HW,2013-03-27 23:43:00,
2013-03-27 19:48:00,39.2,23.1,29.65,North,0,0.0,0.0,52,0.00,,,0.00,WUHU216HW,2013-03-27 23:48:00,
2013-03-27 19:53:00,38.7,22.1,29.65,North,0,0.0,0.0,51,0.00,,,0.00,WUHU216HW,2013-03-27 23:53:00,
2013-03-27 19:58:00,38.5,22.3,29.65,North,0,0.0,0.0,52,0.00,,,0.00,WUHU216HW,2013-03-27 23:58:00,
2013-03-27 20:03:00,38.2,22.1,29.65,North,0,0.0,0.0,52,0.00,,,0.00,WUHU216HW,2013-03-28 00:03:00,
2013-03-27 20:08:00,38.0,22.3,29.65,North,0,0.0,0.0,53,0.00,,,0.00,WUHU216HW,2013-03-28 00:08:00,
2013-03-27 20:13:00,37.6,22.4,29.65,North,0,0.0,0.0,54,0.00,,,0.00,WUHU216HW,2013-03-28 00:13:00,
2013-03-27 20:18:00,37.4,22.2,29.65,North,0,0.0,0.0,54,0.00,,,0.00,WUHU216HW,2013-03-28 00:18:00,
2013-03-27 20:24:00,37.3,22.5,29.65,North,0,0.0,0.0,55,0.00,,,0.00,WUHU216HW,2013-03-28 00:24:00,
2013-03-27 20:29:00,37.1,23.2,29.65,North,0,0.0,0.0,57,0.00,,,0.00,WUHU216HW,2013-03-28 00:29:00,
2013-03-27 20:34:00,36.9,23.0,29.65,North,0,0.0,0.0,57,0.00,,,0.00,WUHU216HW,2013-03-28 00:34:00,
2013-03-27 20:39:00,36.5,23.1,29.65,North,0,0.0,0.0,58,0.00,,,0.00,WUHU216HW,2013-03-28 00:39:00,
2013-03-27 20:44:00,36.4,22.6,29.65,North,0,0.0,0.0,57,0.00,,,0.00,WUHU216HW,2013-03-28 00:44:00,
2013-03-27 20:49:00,36.0,22.2,29.65,North,0,0.0,0.0,57,0.00,,,0.00,WUHU216HW,2013-03-28 00:49:00,
2013-03-27 20:54:00,35.6,22.3,29.65,North,0,0.0,0.0,58,0.00,,,0.00,WUHU216HW,2013-03-28 00:54:00,
2013-03-27 20:59:00,35.1,21.8,29.65,North,0,0.0,0.0,58,0.00,,,0.00,WUHU216HW,2013-03-28 00:59:00,
2013-03-27 21:04:00,34.7,21.1,29.65,North,0,0.0,0.0,57,0.00,,,0.00,WUHU216HW,2013-03-28 01:04:00,
2013-03-27 21:09:00,34.2,20.5,29.65,North,0,0.0,0.0,57,0.00,,,0.00,WUHU216HW,2013-03-28 01:09:00,
2013-03-27 21:14:00,33.5,20.3,29.65,North,0,0.0,0.0,58,0.00,,,0.00,WUHU216HW,2013-03-28 01:14:00,
2013-03-27 21:19:00,32.9,20.2,29.66,North,0,0.0,0.0,59,0.00,,,0.00,WUHU216HW,2013-03-28 01:19:00,
2013-03-27 21:25:00,32.6,19.9,29.66,North,0,0.0,0.0,59,0.00,,,0.00,WUHU216HW,2013-03-28 01:25:00,
2013-03-27 21:30:00,32.0,19.8,29.66,North,0,0.0,0.0,60,0.00,,,0.00,WUHU216HW,2013-03-28 01:30:00,
2013-03-27 21:35:00,31.7,19.8,29.66,North,0,0.0,0.0,61,0.00,,,0.00,WUHU216HW,2013-03-28 01:35:00,
2013-03-27 21:40:00,31.3,19.8,29.65,North,0,0.0,0.0,62,0.00,,,0.00,WUHU216HW,2013-03-28 01:40:00,
2013-03-27 21:45:00,31.1,19.6,29.65,North,0,0.0,0.0,62,0.00,,,0.00,WUHU216HW,2013-03-28 01:45:00,
2013-03-27 21:50:00,30.8,19.3,29.65,North,0,0.0,0.0,62,0.00,,,0.00,WUHU216HW,2013-03-28 01:50:00,
2013-03-27 21:55:00,30.4,19.3,29.65,North,0,0.0,0.0,63,0.00,,,0.00,WUHU216HW,2013-03-28 01:55:00,
2013-03-27 22:00:00,30.1,19.3,29.65,North,0,0.0,0.0,64,0.00,,,0.00,WUHU216HW,2013-03-28 02:00:00,
2013-03-27 22:05:00,29.9,19.4,29.65,North,0,0.0,0.0,65,0.00,,,0.00,WUHU216HW,2013-03-28 02:05:00,
2013-03-27 22:10:00,29.7,19.4,29.65,North,0,0.0,0.0,65,0.00,,,0.00,WUHU216HW,2013-03-28 02:10:00,
2013-03-27 22:15:00,29.3,19.0,29.65,North,0,0.0,0.0,65,0.00,,,0.00,WUHU216HW,2013-03-28 02:15:00,
2013-03-27 22:20:00,29.0,18.6,29.66,North,0,0.0,0.0,65,0.00,,,0.00,WUHU216HW,2013-03-28 02:20:00,
2013-03-27 22:25:00,28.6,18.7,29.66,North,0,0.0,0.0,66,0.00,,,0.00,WUHU216HW,2013-03-28 02:25:00,
2013-03-27 22:30:00,28.6,18.7,29.66,North,0,0.0,0.0,66,0.00,,,0.00,WUHU216HW,2013-03-28 02:30:00,
2013-03-27 22:35:00,28.6,19.1,29.66,North,0,0.0,0.0,67,0.00,,,0.00,WUHU216HW,2013-03-28 02:35:00,
2013-03-27 22:40:00,28.6,18.7,29.66,North,0,0.0,0.0,66,0.00,,,0.00,WUHU216HW,2013-03-28 02:40:00,
2013-03-27 22:45:00,28.4,18.9,29.65,North,0,0.0,0.0,67,0.00,,,0.00,WUHU216HW,2013-03-28 02:45:00,
2013-03-27 22:50:00,28.4,18.9,29.66,North,0,0.0,0.0,67,0.00,,,0.00,WUHU216HW,2013-03-28 02:50:00,
2013-03-27 22:56:00,28.3,18.7,29.66,North,0,0.0,0.0,67,0.00,,,0.00,WUHU216HW,2013-03-28 02:56:00,
2013-03-27 23:01:00,27.9,18.7,29.66,North,0,0.0,0.0,68,0.00,,,0.00,WUHU216HW,2013-03-28 03:01:00,
2013-03-27 23:06:00,27.7,18.5,29.66,North,0,0.0,0.0,68,0.00,,,0.00,WUHU216HW,2013-03-28 03:06:00,
2013-03-27 23:11:00,27.7,18.5,29.66,North,0,0.0,0.0,68,0.00,,,0.00,WUHU216HW,2013-03-28 03:11:00,
2013-03-27 23:16:00,27.7,18.5,29.66,North,0,0.0,0.0,68,0.00,,,0.00,WUHU216HW,2013-03-28 03:16:00,
2013-03-27 23:21:00,27.7,18.5,29.66,North,0,0.0,0.0,68,0.00,,,0.00,WUHU216HW,2013-03-28 03:21:00,
2013-03-27 23:27:00,27.7,18.5,29.66,North,0,0.0,0.0,68,0.00,,,0.00,WUHU216HW,2013-03-28 03:27:00,
2013-03-27 23:32:00,27.7,18.9,29.66,North,0,0.0,0.0,69,0.00,,,0.00,WUHU216HW,2013-03-28 03:32:00,
2013-03-27 23:37:00,27.7,18.9,29.66,North,0,0.0,0.0,69,0.00,,,0.00,WUHU216HW,2013-03-28 03:37:00,
2013-03-27 23:42:00,27.5,18.7,29.65,North,0,0.0,0.0,69,0.00,,,0.00,WUHU216HW,2013-03-28 03:42:00,
2013-03-27 23:47:00,27.4,18.5,29.66,North,0,0.0,0.0,69,0.00,,,0.00,WUHU216HW,2013-03-28 03:47:00,
2013-03-27 23:52:00,27.2,18.4,29.66,North,0,0.0,0.0,69,0.00,,,0.00,WUHU216HW,2013-03-28 03:52:00,
2013-03-27 23:57:00,27.2,18.4,29.65,North,0,0.0,0.0,69,0.00,,,0.00,WUHU216HW,2013-03-28 03:57:00,